Theta_e
358 358 357 356 356 355 355 355 354 355 354 353 352 354 355 356 356 357 357 359 358 357 357 358 359 360 360 362 361 361 362 361 360 360 361 361 359 359 358 358 357 356
359 358 358 357 356 356 356 356 355 354 354 354 352 353 355 356 357 357 357 358 357 356 356 357 357 358 360 360 361 361 362 362 360 358 360 362 361 360 358 358 359 359
359 358 358 356 355 356 355 355 355 354 354 354 353 353 354 354 355 357 357 357 357 356 356 357 357 357 358 359 360 360 360 361 360 358 361 362 361 360 360 358 358 359
360 358 357 355 352 353 354 353 354 355 354 353 353 353 353 353 353 356 357 357 356 355 357 357 356 356 357 358 359 359 359 360 360 360 361 362 360 360 360 359 358 358
360 359 357 355 352 352 354 354 354 354 353 353 353 353 353 354 353 354 356 357 356 356 356 357 356 356 357 358 358 358 358 359 359 359 360 360 360 360 359 359 359 359
360 359 358 356 354 353 355 354 354 354 353 353 353 353 353 354 354 352 354 356 355 354 355 355 356 354 355 357 357 357 357 357 357 359 359 359 359 358 358 359 360 359
359 360 359 356 355 354 355 355 354 354 353 352 353 354 353 354 354 353 353 355 354 353 353 354 355 355 354 356 357 358 358 357 357 359 359 358 358 357 358 357 358 359
358 359 359 356 355 354 355 354 354 355 354 353 353 353 353 353 352 352 353 354 353 353 354 354 355 356 355 354 356 357 358 357 356 358 359 359 358 358 359 358 358 358
358 357 359 358 355 353 354 352 352 354 354 354 352 351 353 353 351 351 352 354 354 354 355 355 355 356 354 353 355 357 358 356 355 356 358 359 358 359 359 358 358 358
357 357 357 358 355 352 352 352 351 352 353 354 352 350 350 351 352 351 352 355 356 354 356 357 355 355 355 353 355 356 357 357 357 357 357 357 356 356 357 357 357 358
357 357 356 356 355 353 352 351 350 349 351 353 352 349 348 350 352 352 351 355 356 355 355 356 356 356 355 354 354 355 356 355 356 356 356 356 355 355 356 356 356 356
356 356 356 355 355 354 352 351 350 349 349 352 352 350 348 348 351 352 352 354 356 354 353 356 356 356 356 355 353 352 354 354 352 353 354 354 354 353 354 354 354 354
355 355 355 355 355 355 353 352 351 350 350 351 352 351 350 347 348 351 352 353 354 354 352 353 356 356 356 356 353 352 353 354 352 351 352 353 352 351 350 350 350 351
354 355 355 355 355 355 354 354 352 352 351 351 352 352 350 349 348 349 352 351 351 352 351 351 354 355 356 356 355 352 351 353 353 352 350 350 351 350 349 348 346 346
354 354 355 355 356 356 356 355 354 354 353 352 353 353 351 351 350 349 350 351 351 350 351 350 351 352 353 355 356 354 351 351 351 352 350 349 350 350 349 349 348 346
354 355 355 355 356 357 357 357 355 354 355 354 354 354 353 352 352 350 350 350 351 351 351 349 348 349 350 351 351 351 352 351 350 351 352 351 351 351 350 349 348 347
354 356 356 356 357 358 358 359 356 356 355 355 355 354 354 353 353 352 351 350 351 351 351 351 348 346 348 347 344 341 344 350 352 352 353 355 354 353 353 351 348 347
353 356 357 357 357 358 359 359 358 357 356 356 355 355 355 355 354 353 352 351 350 350 350 350 349 347 347 346 342 336 335 341 347 350 352 353 354 353 353 352 351 349
353 355 356 357 357 358 359 360 359 358 357 356 356 355 356 355 355 354 354 352 352 351 351 351 350 349 348 346 344 339 335 337 342 346 348 350 352 354 353 353 353 352
353 354 355 357 358 358 359 359 359 359 358 356 356 355 356 356 355 355 355 354 353 352 352 352 351 350 349 348 346 344 341 340 340 343 347 348 348 351 352 352 353 353
351 353 354 355 357 358 358 358 359 359 359 357 356 355 355 356 356 355 355 354 355 354 353 353 352 351 350 349 348 346 345 344 343 343 347 348 348 350 350 352 352 353
346 350 353 355 355 356 358 358 358 359 359 358 357 355 355 356 355 355 356 355 354 354 354 353 353 352 350 349 348 347 346 346 344 343 346 349 349 350 351 352 352 353
340 345 350 354 355 355 357 357 357 358 359 360 358 356 356 356 355 356 356 355 355 355 355 355 354 353 352 351 349 348 347 346 345 345 347 349 350 350 350 352 352 353
338 340 344 349 352 354 355 356 356 355 357 358 359 357 356 356 356 356 356 356 355 355 355 355 355 354 353 351 351 349 348 347 345 347 349 350 351 351 351 352 352 352
338 338 340 342 347 351 353 354 354 353 354 355 356 356 356 356 356 356 356 356 356 356 355 354 355 355 353 352 351 349 348 346 346 349 350 350 351 352 352 353 353 352
337 338 339 341 344 347 349 351 351 352 352 353 353 353 352 353 355 356 357 357 356 356 356 355 354 354 354 353 351 350 349 347 346 348 350 350 352 352 352 353 354 354
Wind_Speed
18 17 17 17 16 15 14 14 14 14 13 12 11 11 10 9 8 8 8 8 9 9 9 9 9 8 7 7 7 6 6 6 5 5 5 5 4 4 5 4 4 4
19 18 17 17 16 15 15 14 14 14 14 13 12 10 10 10 9 9 9 9 9 9 10 10 10 9 9 8 8 7 7 7 7 7 6 5 5 5 5 5 5 4
19 19 18 18 17 16 16 15 14 14 14 13 13 12 11 11 10 10 10 9 10 10 10 11 10 10 10 9 8 8 7 8 8 8 6 6 6 5 5 5 5 5
21 20 19 18 17 16 16 16 15 15 14 14 14 13 13 12 11 11 10 10 10 10 10 11 11 11 11 10 9 8 8 8 9 8 7 7 7 6 6 6 5 5
21 20 19 18 17 17 16 16 16 16 15 15 14 14 14 13 13 11 11 11 11 11 11 12 12 11 11 11 10 10 9 9 9 9 9 9 8 7 7 6 6 6
20 20 19 18 17 17 17 17 17 16 16 16 15 14 14 14 15 14 12 12 11 11 11 12 12 12 12 11 11 11 10 9 9 9 10 10 9 9 8 7 6 7
19 19 20 19 18 18 18 17 17 17 16 16 15 15 15 15 15 15 14 13 12 12 12 12 12 12 12 12 12 12 11 11 10 9 10 10 10 10 9 8 8 8
19 19 20 20 19 19 19 18 17 17 17 16 16 16 16 16 15 15 15 15 14 13 13 13 13 12 12 12 12 13 12 12 11 11 11 11 10 10 10 10 9 9
19 19 19 21 21 20 20 19 18 18 17 18 18 17 16 16 16 16 16 16 15 15 14 14 14 13 13 13 13 13 13 13 12 11 11 11 11 11 11 10 10 10
20 20 19 20 21 21 20 20 19 18 18 19 19 18 17 17 17 17 16 16 16 16 15 15 15 15 14 14 14 14 14 14 13 12 12 12 12 11 11 11 11 11
20 20 20 20 21 21 21 21 20 19 18 19 19 18 18 17 17 17 17 17 18 17 17 17 16 16 15 15 15 15 14 14 14 13 13 12 12 12 11 11 11 11
20 20 20 21 21 21 21 21 20 20 19 19 19 19 19 18 18 17 18 19 19 19 18 18 17 17 17 16 16 16 15 15 14 14 14 13 13 12 12 12 12 12
18 19 19 20 20 20 20 20 20 20 20 19 19 19 20 20 19 19 19 19 20 19 19 18 18 18 18 18 17 17 16 16 16 15 15 14 14 14 13 13 13 12
17 17 18 19 19 19 20 20 20 20 20 20 19 19 20 20 20 20 20 20 20 20 20 19 19 19 19 19 19 18 18 17 17 17 16 16 15 15 14 14 14 14
16 16 17 18 19 19 20 20 20 19 20 20 19 19 20 20 20 20 20 20 20 20 21 20 20 20 20 20 20 19 19 19 18 18 18 17 17 16 16 16 15 16
17 17 17 18 19 20 20 20 20 20 19 20 21 20 20 20 20 20 21 21 20 21 21 21 22 22 22 23 23 22 20 19 19 19 18 18 18 18 17 17 17 17
17 18 19 19 19 20 20 20 20 20 20 20 21 21 21 20 20 21 22 21 21 21 21 22 23 23 24 27 29 28 25 21 19 18 18 18 19 19 19 19 19 19
18 17 19 20 20 20 20 20 20 20 21 21 21 22 22 21 21 22 23 23 22 22 22 23 23 24 26 29 32 33 32 28 23 19 19 19 19 19 20 19 19 19
17 17 19 20 21 21 20 20 20 21 22 22 22 22 22 22 23 23 23 23 23 23 24 24 24 25 27 31 33 34 35 33 29 24 22 21 20 20 20 20 19 19
15 18 20 20 21 21 21 21 21 22 23 22 22 22 22 23 24 23 23 24 24 25 25 25 25 25 27 30 33 34 34 34 33 30 26 24 23 22 21 21 20 20
10 14 18 20 20 21 21 22 22 22 23 22 21 21 21 22 23 23 23 24 24 25 25 25 26 26 28 30 32 34 33 33 33 33 29 26 25 25 24 23 22 22
10 11 13 15 18 20 22 23 23 23 23 22 21 21 21 21 22 22 23 24 25 25 24 25 26 27 29 31 33 34 33 31 33 33 30 28 26 26 26 25 25 24
12 12 11 12 14 17 20 23 24 24 23 21 21 21 21 21 21 21 21 22 23 24 25 26 26 27 29 32 33 33 33 32 33 32 29 27 27 27 27 26 26 26
13 13 13 13 13 15 19 21 22 22 20 19 19 21 21 21 21 21 21 21 23 24 26 26 26 26 29 31 33 33 33 34 33 29 25 25 26 27 27 27 28 30
12 13 13 13 13 15 17 17 16 16 16 16 17 18 19 20 20 21 21 21 22 23 25 26 26 25 27 30 32 33 33 35 33 28 24 25 25 24 26 26 27 30
13 12 12 13 13 13 14 13 12 15 18 18 19 19 19 21 21 21 21 22 22 22 23 25 26 26 26 29 31 32 33 35 34 29 26 26 24 23 24 25 25 26
Wind_Direction
204 204 207 212 213 214 212 211 211 212 212 214 212 211 210 209 211 212 213 214 212 213 216 216 212 209 204 202 204 207 210 216 220 213 214 227 230 230 230 228 234 245
203 204 206 210 212 212 212 212 212 213 213 216 216 213 211 211 212 214 216 215 215 217 218 219 218 215 212 210 209 212 214 218 224 222 218 224 229 228 228 230 230 236
203 205 206 209 212 211 212 212 213 214 215 216 219 219 217 216 216 217 217 216 218 219 219 220 221 218 216 214 213 218 222 222 226 227 223 224 231 233 231 231 230 226
204 206 209 211 213 213 213 213 212 213 216 217 219 221 222 222 219 218 219 217 217 219 220 221 222 220 217 215 216 223 228 229 231 232 231 231 231 236 238 236 234 232
206 206 209 211 212 213 212 213 212 212 215 217 218 220 222 223 220 218 220 218 215 217 220 221 222 221 218 214 216 222 227 230 230 230 235 238 237 237 238 236 234 237
207 206 208 210 210 211 211 213 213 213 215 216 217 219 220 221 221 221 222 218 215 215 216 219 220 221 220 217 218 221 226 231 229 227 233 239 241 239 237 236 235 240
206 206 207 209 210 210 211 213 214 215 216 216 217 218 219 220 221 221 222 220 218 216 215 216 217 219 221 220 221 222 225 230 230 229 233 238 241 241 241 240 239 243
207 206 207 209 210 211 212 214 215 215 215 214 217 219 219 221 221 221 221 221 221 218 216 216 215 218 221 222 224 225 226 229 229 228 232 236 239 240 241 242 241 243
212 208 208 209 212 214 215 216 216 215 214 214 216 218 219 222 223 222 222 221 221 220 218 218 218 219 223 223 224 226 227 230 230 228 231 234 236 238 239 241 242 244
215 212 211 212 215 218 217 218 217 214 213 214 216 218 219 221 222 222 223 221 222 222 220 221 222 222 225 226 225 227 229 231 232 231 232 233 235 238 239 241 243 245
216 215 215 215 217 220 219 219 218 215 213 213 215 217 218 219 219 220 221 221 222 224 223 223 224 224 225 227 227 227 229 231 233 233 233 234 236 238 239 242 244 247
217 217 218 217 218 221 222 221 220 218 216 213 214 216 216 217 217 217 220 222 224 226 226 226 226 225 226 227 228 228 228 230 233 234 236 237 238 239 239 241 244 246
220 219 220 220 220 222 223 223 222 221 219 216 214 215 215 216 216 217 218 222 225 227 227 227 226 226 227 227 228 228 228 229 231 234 238 239 241 242 241 242 244 246
225 222 221 222 222 223 223 223 224 223 222 220 216 215 216 216 217 217 218 222 226 227 228 227 225 226 227 228 229 229 228 228 230 233 236 239 242 243 244 245 247 248
229 224 221 222 222 221 221 222 223 223 222 221 219 218 219 219 220 219 220 222 224 225 227 227 226 227 227 226 227 227 228 230 231 233 236 239 241 244 245 246 248 251
234 227 223 222 221 219 219 220 221 222 221 220 219 220 221 220 221 222 223 224 224 224 225 225 228 229 228 228 229 228 227 229 232 233 235 237 239 243 245 246 248 251
234 231 228 225 221 218 218 218 219 220 221 221 220 221 222 221 222 223 225 227 227 226 226 226 229 229 229 232 236 237 234 231 232 235 235 236 238 241 243 246 249 251
236 233 233 230 225 221 218 218 219 220 221 222 223 223 223 222 224 224 226 228 229 230 230 230 231 231 230 235 240 243 243 239 235 236 238 238 239 240 242 245 248 250
247 238 236 236 235 231 224 220 219 220 222 224 226 226 225 225 225 225 226 228 229 232 233 233 234 233 232 236 240 244 246 243 239 237 238 240 241 241 242 243 245 247
263 250 243 240 240 237 231 226 222 223 225 227 228 227 225 225 227 226 226 227 228 230 232 234 236 235 233 237 241 244 246 245 242 239 238 240 242 242 243 243 243 244
295 271 256 248 243 239 235 233 229 226 227 228 229 229 227 226 228 228 227 227 227 229 232 235 237 236 235 236 240 244 246 245 244 241 239 239 241 242 242 243 242 242
321 302 281 264 251 242 238 237 235 233 231 229 230 231 231 230 229 229 229 228 228 229 231 236 238 237 236 237 240 243 245 244 244 242 240 239 240 241 241 241 241 241
324 318 306 287 268 254 246 242 241 239 237 233 233 235 235 233 231 231 231 230 231 230 230 234 238 237 236 238 240 242 242 242 242 240 238 237 239 240 240 240 240 240
325 321 312 300 286 271 259 252 251 251 248 243 239 237 237 238 236 235 235 233 232 232 231 234 238 238 237 238 241 241 240 240 240 237 235 237 238 239 240 240 241 241
318 315 310 304 296 285 277 273 271 270 271 272 267 257 250 248 243 240 240 238 235 234 234 235 239 240 238 239 241 241 240 239 237 234 234 236 237 238 240 240 240 242
311 309 306 301 295 293 295 295 281 266 264 269 271 268 263 261 255 247 244 242 240 239 237 236 239 241 239 239 241 242 241 238 234 231 232 234 235 237 239 240 240 240